SCP
-0 -0 -0 0 0 -0 -0 -0 -0 -0 -0 -0 -0 -0 -0 -0 -0 -0 -0 -0 -0 -0 -0 -0 0 0 0
0 0 0 0 0 -0 -0 -0 -0 -0 -0 -0 -0 -0 -0 -0 -0 -0 -0 -0 -0 -0 -0 0 0 0 0
0 0 0 0 -0 -0 -0 -0 -0 -0 -0 -0 -0 -0 -0 -0 -0 -0 -0 -0 -0 0 0 0 0 0 0
0 0 0 0 0 -0 -0 -0 -0 0 0 0 0 -0 0 -0 -0 -0 -0 -0 0 0 0 0 0 0 0
0 0 0 0 0 0 -0 -0 -0 0 0 0 0 0 0 0 0 0 0 0 0 0 0 0 0 0 0
-0 0 0 0 0 -0 -0 -0 -0 0 0 0 0 0 0 0 0 0 0 0 0 0 0 0 0 0 0
-0 0 0 -0 -0 -0 -0 -0 -0 0 0 0 0 0 0 0 0 0 0 0 0 0 0 0 0 0 0
-0 -0 -0 -0 -0 -0 -0 -0 0 0 0 0 0 0 0 0 0 0 0 0 0 0 0 0 0 0 0
0 0 0 0 0 0 0 0 0 0 0 0 0 0 0 0 0 0 0 0 0 0 0 0 0 0 0
0 0 0 0 0 0 0 0 0 0 0 0 0 0 0 0 0 0 0 0 0 0 0 0 0 0 0
0 0 0 0 0 0 0 0 0 0 0 0 0 0 0 0 0 0 0 0 0 0 0 0 0 0 0
0 0 0 0 0 0 0 0 0 0 0 0 0 0 0 0 0 0 0 0 0 0 0 0 0 0 0
0 0 0 0 0 0 0 0 0 0 0 0 0 0 0 0 0 0 0 0 0 0 0 0 0 0 0
0 0 0 0 0 0 0 0 0 0 0 0 0 0 0 0 0 0 0 0 0 0 0 0 0 0 0
0 0 0 0 0 0 0 0 0 0 0 0 0 0 0 0 0 0 0 0 0 0 0 0 0 0 0
0 0 0 0 0 0 0 0 0 0 0 0 0 0 0 0 0 0 0 0 0 0 0 0 0 0 0
Wind_Speed_500mb
18 18 18 19 19 19 19 21 22 22 24 26 24 22 20 19 16 15 14 15 17 20 23 27 28 28 25
20 18 18 19 19 19 19 18 19 23 23 22 20 20 18 17 16 14 11 12 15 18 21 23 26 26 28
22 21 20 19 17 17 16 15 15 16 16 18 18 16 15 14 13 11 9 10 12 15 18 18 21 23 26
25 21 20 18 16 15 14 13 12 12 12 12 12 13 12 10 9 8 7 8 11 13 14 15 16 18 20
27 24 21 19 16 14 12 11 10 9 9 8 8 9 9 7 6 5 5 7 8 9 11 12 13 15 17
29 27 24 20 17 14 12 10 8 6 6 6 5 5 6 6 4 3 3 6 7 8 10 10 11 12 14
31 29 26 24 20 17 14 11 9 6 3 2 2 2 3 2 2 1 3 6 6 6 6 7 8 9 12
34 31 29 27 24 22 19 16 14 12 9 6 5 3 3 3 2 3 4 7 7 6 5 6 9 12 16
37 34 32 30 29 27 23 22 20 19 16 14 12 9 9 8 8 8 8 7 7 8 9 10 13 16 21
36 33 32 34 33 30 28 27 26 24 22 20 18 15 16 14 14 13 14 14 13 14 15 17 20 24 29
37 34 32 32 31 32 29 28 27 23 23 24 21 21 21 20 18 17 17 19 19 21 23 25 25 28 31
41 38 37 38 37 32 34 33 30 28 26 24 22 23 24 21 20 20 20 22 24 25 28 28 30 33 36
51 50 48 50 44 41 41 39 36 35 31 30 27 24 19 18 17 23 24 28 29 33 38 39 37 41 38
56 53 52 46 45 49 37 42 40 38 38 37 34 31 30 27 25 26 30 32 33 37 39 40 37 46 38
61 63 61 57 56 55 51 43 48 46 45 44 40 36 35 33 32 32 34 37 33 36 35 35 22 17 48
65 69 69 63 61 53 46 42 33 45 47 44 41 40 37 37 38 40 37 36 34 34 38 33 33 43 37
Wind_Direction_500mb
140 125 115 113 113 112 101 91 91 95 100 98 90 89 91 98 98 94 88 73 61 50 42 38 39 49 51
153 141 133 126 119 109 102 98 87 86 91 89 89 94 91 91 90 81 67 51 39 36 36 37 41 51 53
158 155 149 136 121 110 106 104 101 99 100 90 83 93 93 93 94 84 59 32 26 32 34 40 51 55 57
172 167 160 151 141 129 123 115 107 102 101 97 89 89 95 91 91 86 67 31 14 19 28 43 52 52 53
188 181 177 170 163 155 144 130 118 109 101 103 95 86 90 96 97 94 73 32 12 11 24 39 47 47 47
199 197 192 188 185 180 170 156 146 136 124 108 105 101 97 93 98 94 59 21 11 9 16 27 34 38 40
208 207 204 202 200 202 200 195 195 190 184 153 111 106 96 93 78 55 7 356 359 11 13 23 30 28 11
216 218 217 217 216 216 215 216 221 223 226 232 239 245 242 246 265 304 322 341 346 349 349 359 356 350 343
219 222 225 226 229 231 229 229 233 235 236 241 241 252 262 270 280 285 289 302 317 322 320 318 321 321 323
221 224 229 232 236 238 239 242 240 242 245 248 250 255 259 265 273 283 287 291 295 297 296 299 308 312 315
227 230 237 240 245 243 241 243 246 251 251 253 255 254 259 261 267 277 288 293 292 294 296 299 304 313 319
233 232 237 242 246 248 245 243 242 249 255 260 263 260 260 267 280 291 294 302 308 304 300 304 306 309 302
230 231 232 233 237 241 243 246 249 253 253 258 262 267 270 285 292 285 292 297 299 301 305 302 298 301 307
234 238 242 248 247 248 260 253 250 250 254 257 259 265 270 273 276 280 285 292 296 296 299 311 308 310 316
237 239 241 244 250 247 248 247 247 251 256 259 263 264 267 271 273 277 279 277 281 287 294 300 299 308 301
237 240 240 243 248 249 248 256 251 249 251 255 260 263 263 265 269 274 280 288 286 289 296 297 305 303 306
Wind_Speed_850mb
18 18 18 19 19 19 19 21 22 22 24 26 24 22 20 19 16 15 14 15 17 20 23 27 28 28 25
20 18 18 19 19 19 19 18 19 23 23 22 20 20 18 17 16 14 11 12 15 18 21 23 26 26 28
22 21 20 19 17 17 16 15 15 16 16 18 18 16 15 14 13 11 9 10 12 15 18 18 21 23 26
25 21 20 18 16 15 14 13 12 12 12 12 12 13 12 10 9 8 7 8 11 13 14 15 16 18 20
27 24 21 19 16 14 12 11 10 9 9 8 8 9 9 7 6 5 5 7 8 9 11 12 13 15 17
29 27 24 20 17 14 12 10 8 6 6 6 5 5 6 6 4 3 3 6 7 8 10 10 11 12 14
31 29 26 24 20 17 14 11 9 6 3 2 2 2 3 2 2 1 3 6 6 6 6 7 8 9 12
34 31 29 27 24 22 19 16 14 12 9 6 5 3 3 3 2 3 4 7 7 6 5 6 9 12 16
37 34 32 30 29 27 23 22 20 19 16 14 12 9 9 8 8 8 8 7 7 8 9 10 13 16 21
36 33 32 34 33 30 28 27 26 24 22 20 18 15 16 14 14 13 14 14 13 14 15 17 20 24 29
37 34 32 32 31 32 29 28 27 23 23 24 21 21 21 20 18 17 17 19 19 21 23 25 25 28 31
41 38 37 38 37 32 34 33 30 28 26 24 22 23 24 21 20 20 20 22 24 25 28 28 30 33 36
51 50 48 50 44 41 41 39 36 35 31 30 27 24 19 18 17 23 24 28 29 33 38 39 37 41 38
56 53 52 46 45 49 37 42 40 38 38 37 34 31 30 27 25 26 30 32 33 37 39 40 37 46 38
61 63 61 57 56 55 51 43 48 46 45 44 40 36 35 33 32 32 34 37 33 36 35 35 22 17 48
65 69 69 63 61 53 46 42 33 45 47 44 41 40 37 37 38 40 37 36 34 34 38 33 33 43 37
Wind_Direction_850mb
140 125 115 113 113 112 101 91 91 95 100 98 90 89 91 98 98 94 88 73 61 50 42 38 39 49 51
153 141 133 126 119 109 102 98 87 86 91 89 89 94 91 91 90 81 67 51 39 36 36 37 41 51 53
158 155 149 136 121 110 106 104 101 99 100 90 83 93 93 93 94 84 59 32 26 32 34 40 51 55 57
172 167 160 151 141 129 123 115 107 102 101 97 89 89 95 91 91 86 67 31 14 19 28 43 52 52 53
188 181 177 170 163 155 144 130 118 109 101 103 95 86 90 96 97 94 73 32 12 11 24 39 47 47 47
199 197 192 188 185 180 170 156 146 136 124 108 105 101 97 93 98 94 59 21 11 9 16 27 34 38 40
208 207 204 202 200 202 200 195 195 190 184 153 111 106 96 93 78 55 7 356 359 11 13 23 30 28 11
216 218 217 217 216 216 215 216 221 223 226 232 239 245 242 246 265 304 322 341 346 349 349 359 356 350 343
219 222 225 226 229 231 229 229 233 235 236 241 241 252 262 270 280 285 289 302 317 322 320 318 321 321 323
221 224 229 232 236 238 239 242 240 242 245 248 250 255 259 265 273 283 287 291 295 297 296 299 308 312 315
227 230 237 240 245 243 241 243 246 251 251 253 255 254 259 261 267 277 288 293 292 294 296 299 304 313 319
233 232 237 242 246 248 245 243 242 249 255 260 263 260 260 267 280 291 294 302 308 304 300 304 306 309 302
230 231 232 233 237 241 243 246 249 253 253 258 262 267 270 285 292 285 292 297 299 301 305 302 298 301 307
234 238 242 248 247 248 260 253 250 250 254 257 259 265 270 273 276 280 285 292 296 296 299 311 308 310 316
237 239 241 244 250 247 248 247 247 251 256 259 263 264 267 271 273 277 279 277 281 287 294 300 299 308 301
237 240 240 243 248 249 248 256 251 249 251 255 260 263 263 265 269 274 280 288 286 289 296 297 305 303 306